TimePST,TemperatureF,Dew PointF,Humidity,Sea Level PressureIn,VisibilityMPH,Wind Direction,Wind SpeedMPH,Gust SpeedMPH,PrecipitationIn,Events,Conditions,WindDirDegrees,DateUTC
12:53 AM,44.1,36.0,73,30.42,10.0,ESE,4.6,-,N/A,,Clear,110,2013-03-01 08:53:00
1:53 AM,41.0,35.1,79,30.41,10.0,Calm,Calm,-,N/A,,Clear,0,2013-03-01 09:53:00
2:53 AM,42.1,36.0,79,30.40,10.0,Calm,Calm,-,N/A,,Clear,0,2013-03-01 10:53:00
3:53 AM,43.0,37.0,80,30.39,10.0,ENE,4.6,-,N/A,,Clear,70,2013-03-01 11:53:00
4:53 AM,41.0,35.1,79,30.39,10.0,SE,3.5,-,N/A,,Clear,140,2013-03-01 12:53:00
5:53 AM,37.9,34.0,86,30.39,10.0,ENE,6.9,-,N/A,,Clear,60,2013-03-01 13:53:00
6:53 AM,41.0,34.0,76,30.39,10.0,NE,3.5,-,N/A,,Clear,50,2013-03-01 14:53:00
7:53 AM,45.0,37.0,74,30.39,10.0,NNW,3.5,-,N/A,,Clear,330,2013-03-01 15:53:00
8:53 AM,53.1,41.0,64,30.38,10.0,NNW,3.5,-,N/A,,Clear,330,2013-03-01 16:53:00
9:53 AM,60.1,43.0,53,30.36,10.0,Calm,Calm,-,N/A,,Clear,0,2013-03-01 17:53:00
10:53 AM,66.9,45.0,45,30.33,10.0,Calm,Calm,-,N/A,,Clear,0,2013-03-01 18:53:00
11:53 AM,73.0,42.1,33,30.31,10.0,East,8.1,-,N/A,,Clear,80,2013-03-01 19:53:00
12:53 PM,75.0,37.9,26,30.27,10.0,ESE,11.5,-,N/A,,Clear,110,2013-03-01 20:53:00
1:53 PM,77.0,36.0,23,30.24,10.0,East,9.2,-,N/A,,Clear,90,2013-03-01 21:53:00
2:53 PM,79.0,36.0,21,30.22,10.0,Variable,6.9,-,N/A,,Clear,0,2013-03-01 22:53:00
3:53 PM,79.0,37.0,22,30.21,10.0,East,10.4,-,N/A,,Clear,90,2013-03-01 23:53:00
4:53 PM,75.9,37.9,25,30.21,10.0,ENE,9.2,-,N/A,,Clear,70,2013-03-02 00:53:00
5:53 PM,70.0,39.9,33,30.22,10.0,East,10.4,-,N/A,,Clear,90,2013-03-02 01:53:00
6:53 PM,62.1,41.0,46,30.25,10.0,East,9.2,-,N/A,,Clear,100,2013-03-02 02:53:00
7:53 PM,60.1,42.1,51,30.26,10.0,East,9.2,-,N/A,,Clear,100,2013-03-02 03:53:00
8:53 PM,60.1,42.1,51,30.27,10.0,ESE,4.6,-,N/A,,Clear,110,2013-03-02 04:53:00
9:53 PM,54.0,41.0,62,30.27,10.0,Calm,Calm,-,N/A,,Clear,0,2013-03-02 05:53:00
10:53 PM,55.9,42.1,60,30.27,10.0,SE,3.5,-,N/A,,Clear,130,2013-03-02 06:53:00
11:53 PM,51.1,41.0,68,30.25,10.0,East,4.6,-,N/A,,Clear,90,2013-03-02 07:53:00